User: anonymous   Login
Location: Norwich
(52.6280°N, 1.3030°E)
Time: 00:23:15
(UTC+00:00)
Language:

Meteor 1-22 Rocket - Orbit

View from above orbital plane
View from above orbital plane
View from above satellite
View from above satellite

Ground track
Ground track

The orbit data is extracted from the following two-line orbital elements,

1 08294U 75087B   15028.48731999 -.00000169  00000-0 -10003-3 0  1735
2 08294 081.2157 151.2662 0105170 338.5692 089.4107 14.08504605 22288
Epoch (UTC): 28 January 2015 11:41:44
Eccentricity: 0.0105170
inclination: 81.2157°
perigee height: 788 km
apogee height: 940 km
right ascension of ascending node: 151.2662°
argument of perigee: 338.5692°
revolutions per day: 14.08504605
mean anomaly at epoch: 89.4107°
orbit number at epoch: 2228

The dashed part of the orbit path shows where the satellite is in the earth's shadow,  

DLR